Time,TemperatureF,DewpointF,PressureIn,WindDirection,WindDirectionDegrees,WindSpeedMPH,WindSpeedGustMPH,Humidity,HourlyPrecipIn,Conditions,Clouds,dailyrainin,SoftwareType,DateUTC
2013-02-17 09:46:00,40.5,6.4,24.51,West,270,8.1,8.1,24,0.00,CLR,,0.00,WeatherDisplay:10.37,2013-02-17 16:46:00,
2013-02-17 09:47:00,43.2,6.8,24.36,East,90,8.1,8.1,22,0.00,CLR,,0.00,WeatherDisplay:10.37,2013-02-17 16:47:00,
2013-02-17 09:52:00,43.0,6.7,24.36,NNW,338,5.8,5.8,22,0.00,CLR,,0.00,WeatherDisplay:10.37,2013-02-17 16:52:00,
2013-02-17 09:57:00,44.6,7.0,24.36,NE,45,6.9,6.9,21,0.00,CLR,,0.00,WeatherDisplay:10.37,2013-02-17 16:57:00,
2013-02-17 10:02:00,45.9,8.1,24.35,NE,45,5.8,5.8,21,0.00,CLR,,0.00,WeatherDisplay:10.37,2013-02-17 17:02:00,
2013-02-17 10:07:00,45.9,8.1,24.35,North,0,6.9,6.9,21,0.00,CLR,,0.00,WeatherDisplay:10.37,2013-02-17 17:07:00,
2013-02-17 10:13:00,46.0,8.2,24.35,SE,135,3.5,3.5,21,0.00,CLR,,0.00,WeatherDisplay:10.37,2013-02-17 17:13:00,
2013-02-17 10:18:00,45.1,7.5,24.35,East,90,3.8,3.8,21,0.00,CLR,,0.00,WeatherDisplay:10.37,2013-02-17 17:18:00,
2013-02-17 10:23:00,45.3,7.6,24.35,East,90,4.6,4.6,21,0.00,CLR,,0.00,WeatherDisplay:10.37,2013-02-17 17:23:00,
2013-02-17 10:28:00,46.6,11.7,24.35,East,90,4.6,4.6,24,0.00,CLR,,0.00,WeatherDisplay:10.37,2013-02-17 17:28:00,
2013-02-17 10:34:00,50.5,13.0,24.35,East,90,5.8,5.8,22,0.00,CLR,,0.00,WeatherDisplay:10.37,2013-02-17 17:34:00,
2013-02-17 10:39:00,50.4,12.9,24.34,NE,45,5.8,5.8,22,0.00,CLR,,0.00,WeatherDisplay:10.37,2013-02-17 17:39:00,
2013-02-17 10:44:00,51.6,13.9,24.34,South,180,5.8,5.8,22,0.00,CLR,,0.00,WeatherDisplay:10.37,2013-02-17 17:44:00,
2013-02-17 10:50:00,49.6,13.3,24.34,SE,135,8.1,8.1,23,0.00,CLR,,0.00,WeatherDisplay:10.37,2013-02-17 17:50:00,
2013-02-17 10:55:00,49.8,13.4,24.34,South,180,3.5,3.5,23,0.00,CLR,,0.00,WeatherDisplay:10.37,2013-02-17 17:55:00,
2013-02-17 11:00:00,50.0,12.6,24.34,SE,135,10.4,10.4,22,0.00,CLR,,0.00,WeatherDisplay:10.37,2013-02-17 18:00:00,
2013-02-17 11:05:00,50.0,12.6,24.33,SE,135,10.4,10.4,22,0.00,CLR,,0.00,WeatherDisplay:10.37,2013-02-17 18:05:00,
2013-02-17 11:11:00,48.9,12.7,24.33,South,180,9.2,9.2,23,0.00,CLR,,0.00,WeatherDisplay:10.37,2013-02-17 18:11:00,
2013-02-17 11:16:00,48.7,11.5,24.32,SE,135,9.2,9.2,22,0.00,CLR,,0.00,WeatherDisplay:10.37,2013-02-17 18:16:00,
2013-02-17 11:21:00,49.3,12.0,24.32,SE,135,6.9,6.9,22,0.00,CLR,,0.00,WeatherDisplay:10.37,2013-02-17 18:21:00,
2013-02-17 11:26:00,50.2,12.7,24.32,SE,135,11.5,11.5,22,0.00,CLR,,0.00,WeatherDisplay:10.37,2013-02-17 18:26:00,
2013-02-17 11:31:00,51.1,13.5,24.32,East,90,6.9,6.9,22,0.00,CLR,,0.00,WeatherDisplay:10.37,2013-02-17 18:31:00,
2013-02-17 11:36:00,50.7,12.1,24.32,South,180,6.9,6.9,21,0.00,CLR,,0.00,WeatherDisplay:10.37,2013-02-17 18:36:00,
2013-02-17 11:41:00,50.2,12.7,24.31,East,90,8.1,8.1,22,0.00,CLR,,0.00,WeatherDisplay:10.37,2013-02-17 18:41:00,
2013-02-17 11:46:00,50.0,12.6,24.30,South,180,8.1,8.1,22,0.00,CLR,,0.00,WeatherDisplay:10.37,2013-02-17 18:46:00,
2013-02-17 11:51:00,51.1,12.4,24.30,South,180,12.7,12.7,21,0.00,CLR,,0.00,WeatherDisplay:10.37,2013-02-17 18:51:00,
2013-02-17 11:57:00,51.4,13.8,24.29,SE,135,10.4,10.4,22,0.00,CLR,,0.00,WeatherDisplay:10.37,2013-02-17 18:57:00,
2013-02-17 12:02:00,51.1,13.5,24.29,SE,135,11.5,11.5,22,0.00,CLR,,0.00,WeatherDisplay:10.37,2013-02-17 19:02:00,
2013-02-17 12:07:00,51.8,13.0,24.29,SE,135,11.5,11.5,21,0.00,CLR,,0.00,WeatherDisplay:10.37,2013-02-17 19:07:00,
2013-02-17 12:13:00,51.3,13.6,24.28,SW,225,10.4,10.4,22,0.00,CLR,,0.00,WeatherDisplay:10.37,2013-02-17 19:13:00,
2013-02-17 12:18:00,52.5,12.5,24.28,SW,225,10.4,10.4,20,0.00,CLR,,0.00,WeatherDisplay:10.37,2013-02-17 19:18:00,
2013-02-17 12:23:00,52.3,12.4,24.28,SW,225,12.7,12.7,20,0.00,CLR,,0.00,WeatherDisplay:10.37,2013-02-17 19:23:00,
2013-02-17 12:28:00,52.3,12.4,24.28,South,180,11.5,11.5,20,0.00,CLR,,0.00,WeatherDisplay:10.37,2013-02-17 19:28:00,
2013-02-17 12:33:00,53.2,14.2,24.27,South,180,9.2,9.2,21,0.00,CLR,,0.00,WeatherDisplay:10.37,2013-02-17 19:33:00,
2013-02-17 12:39:00,53.2,13.1,24.26,SE,135,9.2,9.2,20,0.00,CLR,,0.00,WeatherDisplay:10.37,2013-02-17 19:39:00,
2013-02-17 12:44:00,54.1,12.7,24.26,East,90,9.2,9.2,19,0.00,CLR,,0.00,WeatherDisplay:10.37,2013-02-17 19:44:00,
2013-02-17 12:49:00,55.6,16.2,24.25,South,180,8.1,8.1,21,0.00,CLR,,0.00,WeatherDisplay:10.37,2013-02-17 19:49:00,
2013-02-17 12:54:00,55.0,13.5,24.25,South,180,10.4,10.4,19,0.00,CLR,,0.00,WeatherDisplay:10.37,2013-02-17 19:54:00,
2013-02-17 13:00:00,54.7,13.2,24.24,SW,225,9.2,9.2,19,0.00,CLR,,0.00,WeatherDisplay:10.37,2013-02-17 20:00:00,
2013-02-17 13:05:00,54.9,13.3,24.24,South,180,8.3,8.3,19,0.00,CLR,,0.00,WeatherDisplay:10.37,2013-02-17 20:05:00,
2013-02-17 13:10:00,56.3,16.8,24.24,South,180,10.4,10.4,21,0.00,CLR,,0.00,WeatherDisplay:10.37,2013-02-17 20:10:00,
2013-02-17 13:15:00,55.8,16.4,24.24,South,180,11.5,11.5,21,0.00,CLR,,0.00,WeatherDisplay:10.37,2013-02-17 20:15:00,
2013-02-17 13:21:00,54.9,14.5,24.24,SW,225,10.4,10.4,20,0.00,CLR,,0.00,WeatherDisplay:10.37,2013-02-17 20:21:00,
2013-02-17 13:26:00,55.9,16.5,24.24,South,180,10.4,10.4,21,0.00,CLR,,0.00,WeatherDisplay:10.37,2013-02-17 20:26:00,
2013-02-17 13:31:00,57.6,17.9,24.23,South,180,9.2,9.2,21,0.00,CLR,,0.00,WeatherDisplay:10.37,2013-02-17 20:31:00,
2013-02-17 13:36:00,55.4,16.1,24.23,East,90,10.4,10.4,21,0.00,CLR,,0.00,WeatherDisplay:10.37,2013-02-17 20:36:00,
2013-02-17 13:41:00,56.7,17.1,24.22,South,180,12.7,12.7,21,0.00,CLR,,0.00,WeatherDisplay:10.37,2013-02-17 20:41:00,
2013-02-17 13:46:00,56.1,16.7,24.21,South,180,9.2,9.2,21,0.00,CLR,,0.00,WeatherDisplay:10.37,2013-02-17 20:46:00,
2013-02-17 13:52:00,55.9,16.5,24.21,South,180,13.8,13.8,21,0.00,CLR,,0.00,WeatherDisplay:10.37,2013-02-17 20:52:00,
2013-02-17 13:57:00,55.9,17.6,24.20,SSE,158,12.7,12.7,22,0.00,CLR,,0.00,WeatherDisplay:10.37,2013-02-17 20:57:00,
2013-02-17 14:02:00,57.2,16.4,24.20,South,180,11.5,11.5,20,0.00,CLR,,0.00,WeatherDisplay:10.37,2013-02-17 21:02:00,
2013-02-17 14:07:00,57.4,16.6,24.20,South,180,12.7,12.7,20,0.00,CLR,,0.00,WeatherDisplay:10.37,2013-02-17 21:07:00,
2013-02-17 14:13:00,57.2,16.4,24.19,SE,135,8.1,9.2,20,0.00,CLR,,0.00,WeatherDisplay:10.37,2013-02-17 21:13:00,
2013-02-17 14:18:00,57.2,16.4,24.19,South,180,12.7,12.7,20,0.00,CLR,,0.00,WeatherDisplay:10.37,2013-02-17 21:18:00,
2013-02-17 14:23:00,56.1,16.7,24.18,South,180,13.8,13.8,21,0.00,CLR,,0.00,WeatherDisplay:10.37,2013-02-17 21:23:00,
2013-02-17 14:29:00,55.9,16.5,24.18,SE,135,12.7,12.7,21,0.00,CLR,,0.00,WeatherDisplay:10.37,2013-02-17 21:29:00,
2013-02-17 14:34:00,56.7,17.1,24.18,SE,135,15.0,15.0,21,0.00,CLR,,0.00,WeatherDisplay:10.37,2013-02-17 21:34:00,
2013-02-17 14:39:00,57.4,16.6,24.18,South,180,15.0,15.0,20,0.00,CLR,,0.00,WeatherDisplay:10.37,2013-02-17 21:39:00,
2013-02-17 14:44:00,58.1,17.2,24.17,South,180,13.8,13.8,20,0.00,CLR,,0.00,WeatherDisplay:10.37,2013-02-17 21:44:00,
2013-02-17 14:50:00,59.4,18.2,24.17,South,180,10.4,10.4,20,0.00,CLR,,0.00,WeatherDisplay:10.37,2013-02-17 21:50:00,
2013-02-17 14:55:00,57.9,17.0,24.17,SW,225,11.5,11.5,20,0.00,CLR,,0.00,WeatherDisplay:10.37,2013-02-17 21:55:00,
2013-02-17 15:00:00,57.9,17.0,24.17,South,180,10.4,10.4,20,0.00,CLR,,0.00,WeatherDisplay:10.37,2013-02-17 22:00:00,
2013-02-17 15:05:00,57.9,17.0,24.17,South,180,10.4,10.4,20,0.00,CLR,,0.00,WeatherDisplay:10.37,2013-02-17 22:05:00,
2013-02-17 15:10:00,58.8,17.8,24.17,South,180,10.4,10.4,20,0.00,CLR,,0.00,WeatherDisplay:10.37,2013-02-17 22:10:00,
2013-02-17 15:15:00,58.6,17.6,24.17,South,180,11.5,11.5,20,0.00,CLR,,0.00,WeatherDisplay:10.37,2013-02-17 22:15:00,
2013-02-17 15:21:00,58.3,17.3,24.16,South,180,10.4,10.4,20,0.00,CLR,,0.00,WeatherDisplay:10.37,2013-02-17 22:21:00,
2013-02-17 15:26:00,58.1,17.2,24.16,South,180,15.0,15.0,20,0.00,CLR,,0.00,WeatherDisplay:10.37,2013-02-17 22:26:00,
2013-02-17 15:31:00,59.0,16.7,24.16,South,180,10.4,10.4,19,0.00,CLR,,0.00,WeatherDisplay:10.37,2013-02-17 22:31:00,
2013-02-17 15:36:00,59.9,17.5,24.16,South,180,10.4,10.4,19,0.00,CLR,,0.00,WeatherDisplay:10.37,2013-02-17 22:36:00,
2013-02-17 15:41:00,59.4,17.0,24.16,SE,135,15.0,15.0,19,0.00,CLR,,0.00,WeatherDisplay:10.37,2013-02-17 22:41:00,
2013-02-17 15:47:00,59.4,17.0,24.16,SE,135,12.7,12.7,19,0.00,CLR,,0.00,WeatherDisplay:10.37,2013-02-17 22:47:00,
2013-02-17 15:52:00,59.2,16.9,24.15,South,180,9.2,9.2,19,0.00,CLR,,0.00,WeatherDisplay:10.37,2013-02-17 22:52:00,
2013-02-17 15:57:00,59.2,16.9,24.15,South,180,10.4,10.4,19,0.00,CLR,,0.00,WeatherDisplay:10.37,2013-02-17 22:57:00,
2013-02-17 16:02:00,59.4,17.0,24.15,South,180,8.1,8.1,19,0.00,CLR,,0.00,WeatherDisplay:10.37,2013-02-17 23:02:00,
2013-02-17 16:08:00,61.0,17.1,24.14,South,180,10.4,10.4,18,0.00,CLR,,0.00,WeatherDisplay:10.37,2013-02-17 23:08:00,
2013-02-17 16:13:00,61.9,17.9,24.14,East,90,12.7,12.7,18,0.00,CLR,,0.00,WeatherDisplay:10.37,2013-02-17 23:13:00,
2013-02-17 16:18:00,61.2,17.3,24.14,SW,225,9.2,9.2,18,0.00,CLR,,0.00,WeatherDisplay:10.37,2013-02-17 23:18:00,
2013-02-17 16:23:00,62.1,18.0,24.14,SW,225,9.8,9.8,18,0.00,CLR,,0.00,WeatherDisplay:10.37,2013-02-17 23:23:00,
2013-02-17 16:29:00,62.1,18.0,24.14,SW,225,9.2,9.2,18,0.00,CLR,,0.00,WeatherDisplay:10.37,2013-02-17 23:29:00,
2013-02-17 16:34:00,61.7,17.7,24.14,South,180,5.8,5.8,18,0.00,CLR,,0.00,WeatherDisplay:10.37,2013-02-17 23:34:00,
2013-02-17 16:39:00,61.5,17.6,24.13,South,180,8.3,8.3,18,0.00,CLR,,0.00,WeatherDisplay:10.37,2013-02-17 23:39:00,
2013-02-17 16:44:00,61.0,17.1,24.13,South,180,8.1,8.1,18,0.00,CLR,,0.00,WeatherDisplay:10.37,2013-02-17 23:44:00,
2013-02-17 16:49:00,60.8,17.0,24.14,South,180,8.1,8.1,18,0.00,CLR,,0.00,WeatherDisplay:10.37,2013-02-17 23:49:00,
2013-02-17 16:55:00,60.4,17.9,24.13,South,180,5.8,5.8,19,0.00,CLR,,0.00,WeatherDisplay:10.37,2013-02-17 23:55:00,
2013-02-17 17:00:00,60.1,17.6,24.13,SW,225,8.1,8.1,19,0.00,CLR,,0.00,WeatherDisplay:10.37,2013-02-18 00:00:00,
2013-02-17 17:05:00,60.1,17.6,24.13,SW,225,5.8,5.8,19,0.00,CLR,,0.00,WeatherDisplay:10.37,2013-02-18 00:05:00,
2013-02-17 17:11:00,59.2,16.9,24.13,WSW,248,10.4,10.4,19,0.00,CLR,,0.00,WeatherDisplay:10.37,2013-02-18 00:11:00,
2013-02-17 17:16:00,59.0,16.7,24.13,North,0,8.1,8.1,19,0.00,CLR,,0.00,WeatherDisplay:10.37,2013-02-18 00:16:00,
2013-02-17 17:21:00,58.8,17.8,24.12,SW,225,6.9,6.9,20,0.00,CLR,,0.00,WeatherDisplay:10.37,2013-02-18 00:21:00,
2013-02-17 17:26:00,58.5,17.5,24.12,South,180,5.8,5.8,20,0.00,CLR,,0.00,WeatherDisplay:10.37,2013-02-18 00:26:00,
2013-02-17 17:32:00,57.4,16.6,24.13,SSW,202,5.8,5.8,20,0.00,CLR,,0.00,WeatherDisplay:10.37,2013-02-18 00:32:00,
2013-02-17 17:37:00,56.1,17.7,24.12,SW,225,5.8,5.8,22,0.00,CLR,,0.00,WeatherDisplay:10.37,2013-02-18 00:37:00,
2013-02-17 17:42:00,55.0,13.5,24.12,South,180,3.5,3.5,19,0.00,CLR,,0.00,WeatherDisplay:10.37,2013-02-18 00:42:00,
2013-02-17 17:47:00,54.5,13.0,24.12,SW,225,4.6,4.6,19,0.00,CLR,,0.00,WeatherDisplay:10.37,2013-02-18 00:47:00,
2013-02-17 17:53:00,53.6,12.3,24.13,SW,225,5.8,5.8,19,0.00,CLR,,0.00,WeatherDisplay:10.37,2013-02-18 00:53:00,
2013-02-17 17:58:00,53.2,14.2,24.13,SW,225,4.6,4.6,21,0.00,CLR,,0.00,WeatherDisplay:10.37,2013-02-18 00:58:00,
2013-02-17 18:03:00,52.9,12.8,24.13,SW,225,5.8,5.8,20,0.00,CLR,,0.00,WeatherDisplay:10.37,2013-02-18 01:03:00,
2013-02-17 18:08:00,52.9,12.8,24.13,SW,225,5.8,5.8,20,0.00,CLR,,0.00,WeatherDisplay:10.37,2013-02-18 01:08:00,
2013-02-17 18:13:00,52.2,12.2,24.13,West,270,5.8,5.8,20,0.00,CLR,,0.00,WeatherDisplay:10.37,2013-02-18 01:13:00,
2013-02-17 18:18:00,51.3,13.6,24.13,West,270,4.6,4.6,22,0.00,CLR,,0.00,WeatherDisplay:10.37,2013-02-18 01:18:00,
2013-02-17 18:24:00,50.9,12.3,24.14,West,270,4.6,4.6,21,0.00,CLR,,0.00,WeatherDisplay:10.37,2013-02-18 01:24:00,
2013-02-17 18:29:00,50.5,12.0,24.14,SW,225,5.8,5.8,21,0.00,CLR,,0.00,WeatherDisplay:10.37,2013-02-18 01:29:00,
2013-02-17 18:34:00,50.5,12.0,24.14,NW,315,8.1,8.1,21,0.00,CLR,,0.00,WeatherDisplay:10.37,2013-02-18 01:34:00,
2013-02-17 18:39:00,50.4,11.8,24.14,SW,225,6.9,6.9,21,0.00,CLR,,0.00,WeatherDisplay:10.37,2013-02-18 01:39:00,
2013-02-17 18:44:00,51.1,12.4,24.15,NW,315,8.1,8.1,21,0.00,CLR,,0.00,WeatherDisplay:10.37,2013-02-18 01:44:00,
2013-02-17 18:50:00,50.2,11.7,24.14,SSW,202,5.8,5.8,21,0.00,CLR,,0.00,WeatherDisplay:10.37,2013-02-18 01:50:00,
2013-02-17 18:55:00,49.8,12.4,24.14,West,270,8.1,8.1,22,0.00,CLR,,0.00,WeatherDisplay:10.37,2013-02-18 01:55:00,
2013-02-17 19:00:00,49.1,12.8,24.14,West,270,5.8,5.8,23,0.00,CLR,,0.00,WeatherDisplay:10.37,2013-02-18 02:00:00,
2013-02-17 19:05:00,49.1,12.8,24.14,West,270,5.8,5.8,23,0.00,CLR,,0.00,WeatherDisplay:10.37,2013-02-18 02:05:00,
2013-02-17 19:10:00,47.8,11.8,24.14,West,270,5.8,5.8,23,0.00,CLR,,0.00,WeatherDisplay:10.37,2013-02-18 02:10:00,
2013-02-17 19:16:00,46.9,12.0,24.14,West,270,5.8,5.8,24,0.00,CLR,,0.00,WeatherDisplay:10.37,2013-02-18 02:16:00,
2013-02-17 19:21:00,46.6,11.7,24.14,West,270,8.1,8.1,24,0.00,CLR,,0.00,WeatherDisplay:10.37,2013-02-18 02:21:00,
2013-02-17 19:26:00,47.3,12.3,24.14,West,270,10.4,10.4,24,0.00,CLR,,0.00,WeatherDisplay:10.37,2013-02-18 02:26:00,
2013-02-17 19:31:00,47.8,12.7,24.14,West,270,9.2,9.2,24,0.00,CLR,,0.00,WeatherDisplay:10.37,2013-02-18 02:31:00,
2013-02-17 19:37:00,48.0,12.9,24.14,NW,315,12.7,12.7,24,0.00,CLR,,0.00,WeatherDisplay:10.37,2013-02-18 02:37:00,
2013-02-17 19:42:00,49.1,11.8,24.14,West,270,11.5,11.5,22,0.00,CLR,,0.00,WeatherDisplay:10.37,2013-02-18 02:42:00,
2013-02-17 19:47:00,48.9,11.7,24.15,West,270,12.7,12.7,22,0.00,CLR,,0.00,WeatherDisplay:10.37,2013-02-18 02:47:00,
2013-02-17 19:52:00,49.3,12.0,24.15,NW,315,17.3,17.3,22,0.00,CLR,,0.00,WeatherDisplay:10.37,2013-02-18 02:52:00,
2013-02-17 19:58:00,50.2,11.7,24.15,West,270,15.0,15.0,21,0.00,CLR,,0.00,WeatherDisplay:10.37,2013-02-18 02:58:00,
2013-02-17 20:03:00,50.5,12.0,24.14,NW,315,12.7,12.7,21,0.00,CLR,,0.00,WeatherDisplay:10.37,2013-02-18 03:03:00,
2013-02-17 20:08:00,50.5,12.0,24.15,West,270,15.0,15.0,21,0.00,CLR,,0.00,WeatherDisplay:10.37,2013-02-18 03:08:00,
2013-02-17 20:13:00,50.5,12.0,24.15,West,270,13.8,13.8,21,0.00,CLR,,0.00,WeatherDisplay:10.37,2013-02-18 03:13:00,
2013-02-17 20:19:00,50.4,11.8,24.15,NW,315,16.1,16.1,21,0.00,CLR,,0.00,WeatherDisplay:10.37,2013-02-18 03:19:00,
2013-02-17 20:24:00,50.4,11.8,24.15,NW,315,12.7,12.7,21,0.00,CLR,,0.00,WeatherDisplay:10.37,2013-02-18 03:24:00,
2013-02-17 20:29:00,50.2,11.7,24.15,West,270,12.7,12.7,21,0.00,CLR,,0.00,WeatherDisplay:10.37,2013-02-18 03:29:00,
2013-02-17 20:35:00,49.6,12.3,24.16,SW,225,16.1,16.1,22,0.00,CLR,,0.00,WeatherDisplay:10.37,2013-02-18 03:35:00,
2013-02-17 20:40:00,49.3,12.0,24.16,West,270,15.0,15.0,22,0.00,CLR,,0.00,WeatherDisplay:10.37,2013-02-18 03:40:00,
2013-02-17 20:45:00,49.3,12.0,24.16,NW,315,16.1,16.1,22,0.00,CLR,,0.00,WeatherDisplay:10.37,2013-02-18 03:45:00,
2013-02-17 20:50:00,48.9,11.7,24.16,West,270,17.3,17.3,22,0.00,CLR,,0.00,WeatherDisplay:10.37,2013-02-18 03:50:00,
2013-02-17 20:56:00,48.9,11.7,24.16,NW,315,17.3,17.3,22,0.00,CLR,,0.00,WeatherDisplay:10.37,2013-02-18 03:56:00,
2013-02-17 21:01:00,48.9,11.7,24.16,West,270,15.0,15.0,22,0.00,CLR,,0.00,WeatherDisplay:10.37,2013-02-18 04:01:00,
2013-02-17 21:06:00,48.9,11.7,24.16,West,270,15.0,15.0,22,0.00,CLR,,0.00,WeatherDisplay:10.37,2013-02-18 04:06:00,
2013-02-17 21:11:00,48.7,12.5,24.17,SW,225,13.8,13.8,23,0.00,CLR,,0.00,WeatherDisplay:10.37,2013-02-18 04:11:00,
2013-02-17 21:16:00,48.6,12.4,24.17,WNW,292,16.1,16.1,23,0.00,CLR,,0.00,WeatherDisplay:10.37,2013-02-18 04:16:00,
2013-02-17 21:21:00,48.6,12.4,24.17,SW,225,16.1,16.1,23,0.00,CLR,,0.00,WeatherDisplay:10.37,2013-02-18 04:21:00,
2013-02-17 21:27:00,48.2,12.1,24.16,West,270,15.0,15.0,23,0.00,CLR,,0.00,WeatherDisplay:10.37,2013-02-18 04:27:00,
2013-02-17 21:32:00,47.8,12.7,24.17,West,270,16.1,16.1,24,0.00,CLR,,0.00,WeatherDisplay:10.37,2013-02-18 04:32:00,
2013-02-17 21:37:00,47.8,11.8,24.17,WNW,292,16.1,16.1,23,0.00,CLR,,0.00,WeatherDisplay:10.37,2013-02-18 04:37:00,
2013-02-17 21:42:00,47.8,12.7,24.17,West,270,18.4,18.4,24,0.00,CLR,,0.00,WeatherDisplay:10.37,2013-02-18 04:42:00,
2013-02-17 21:48:00,47.8,12.7,24.17,West,270,20.7,20.7,24,0.00,CLR,,0.00,WeatherDisplay:10.37,2013-02-18 04:48:00,
2013-02-17 21:53:00,47.7,12.6,24.17,West,270,18.4,18.4,24,0.00,CLR,,0.00,WeatherDisplay:10.37,2013-02-18 04:53:00,
2013-02-17 21:58:00,47.3,12.3,24.17,SW,225,20.7,20.7,24,0.00,CLR,,0.00,WeatherDisplay:10.37,2013-02-18 04:58:00,
2013-02-17 22:00:00,47.5,12.4,24.17,West,270,20.7,20.7,24,0.00,CLR,,0.00,WeatherDisplay:10.37,2013-02-18 05:00:00,
2013-02-17 22:01:00,47.5,12.4,24.17,West,270,24.2,24.2,24,0.00,CLR,,0.00,WeatherDisplay:10.37,2013-02-18 05:01:00,
2013-02-17 22:06:00,47.3,12.3,24.17,SW,225,17.3,17.3,24,0.00,CLR,,0.00,WeatherDisplay:10.37,2013-02-18 05:06:00,
2013-02-17 22:11:00,46.9,12.0,24.18,West,270,18.4,18.4,24,0.00,CLR,,0.00,WeatherDisplay:10.37,2013-02-18 05:11:00,
2013-02-17 22:17:00,46.8,11.8,24.18,West,270,15.0,15.0,24,0.00,CLR,,0.00,WeatherDisplay:10.37,2013-02-18 05:17:00,
2013-02-17 22:22:00,46.4,11.5,24.18,West,270,15.0,15.0,24,0.00,CLR,,0.00,WeatherDisplay:10.37,2013-02-18 05:22:00,
2013-02-17 22:27:00,46.0,8.2,24.18,West,270,13.8,13.8,21,0.00,CLR,,0.00,WeatherDisplay:10.37,2013-02-18 05:27:00,
2013-02-17 22:32:00,45.9,8.1,24.18,NW,315,12.7,12.7,21,0.00,CLR,,0.00,WeatherDisplay:10.37,2013-02-18 05:32:00,
2013-02-17 22:37:00,45.9,8.1,24.18,West,270,16.1,16.1,21,0.00,CLR,,0.00,WeatherDisplay:10.37,2013-02-18 05:37:00,
2013-02-17 22:43:00,45.7,7.9,24.18,WNW,292,16.1,16.1,21,0.00,CLR,,0.00,WeatherDisplay:10.37,2013-02-18 05:43:00,
2013-02-17 22:48:00,45.5,7.8,24.18,West,270,15.0,15.0,21,0.00,CLR,,0.00,WeatherDisplay:10.37,2013-02-18 05:48:00,
2013-02-17 22:53:00,45.1,7.5,24.18,West,270,12.7,12.7,21,0.00,CLR,,0.00,WeatherDisplay:10.37,2013-02-18 05:53:00,
2013-02-17 22:58:00,45.1,7.5,24.19,West,270,12.7,12.7,21,0.00,CLR,,0.00,WeatherDisplay:10.37,2013-02-18 05:58:00,
2013-02-17 23:03:00,45.0,7.3,24.19,West,270,12.7,12.7,21,0.00,CLR,,0.00,WeatherDisplay:10.37,2013-02-18 06:03:00,
2013-02-17 23:09:00,44.6,7.0,24.19,NW,315,12.7,12.7,21,0.00,CLR,,0.00,WeatherDisplay:10.37,2013-02-18 06:09:00,
2013-02-17 23:14:00,45.0,7.3,24.19,West,270,15.0,15.0,21,0.00,CLR,,0.00,WeatherDisplay:10.37,2013-02-18 06:14:00,
2013-02-17 23:19:00,44.8,7.2,24.18,SW,225,16.1,16.1,21,0.00,CLR,,0.00,WeatherDisplay:10.37,2013-02-18 06:19:00,
2013-02-17 23:25:00,44.4,7.9,24.19,West,270,12.7,12.7,22,0.00,CLR,,0.00,WeatherDisplay:10.37,2013-02-18 06:25:00,
2013-02-17 23:30:00,44.1,7.6,24.19,SW,225,12.7,12.7,22,0.00,CLR,,0.00,WeatherDisplay:10.37,2013-02-18 06:30:00,
2013-02-17 23:35:00,43.9,7.4,24.19,West,270,8.1,8.1,22,0.00,CLR,,0.00,WeatherDisplay:10.37,2013-02-18 06:35:00,
2013-02-17 23:40:00,43.5,7.1,24.19,West,270,10.4,10.4,22,0.00,CLR,,0.00,WeatherDisplay:10.37,2013-02-18 06:40:00,
2013-02-17 23:45:00,43.0,6.7,24.19,West,270,9.2,9.2,22,0.00,CLR,,0.00,WeatherDisplay:10.37,2013-02-18 06:45:00,
2013-02-17 23:50:00,42.4,7.2,24.19,NW,315,10.4,10.4,23,0.00,CLR,,0.00,WeatherDisplay:10.37,2013-02-18 06:50:00,
2013-02-17 23:56:00,42.3,7.0,24.20,West,270,8.1,8.1,23,0.00,CLR,,0.00,WeatherDisplay:10.37,2013-02-18 06:56:00,